Data supplied by UK-AIR on 5/4/2008
All Data GMT hour ending 
Status: R =Ratified P=Provisional,P*=As supplied
,,Walsall Alumwell,,,,,,,,,,,,,,,,,,,,,,,
Date,time,"Nitric oxide",status,unit,"Nitrogen dioxide",status,unit,"Nitrogen oxides as nitrogen dioxide",status,unit
 
01-01-2005,01:00,1,R,ugm-3,21,R,ugm-3,23,R,ugm-3
01-01-2005,02:00,1,R,ugm-3,32,R,ugm-3,34,R,ugm-3
01-01-2005,03:00,1,R,ugm-3,13,R,ugm-3,15,R,ugm-3
01-01-2005,04:00,1,R,ugm-3,15,R,ugm-3,17,R,ugm-3
01-01-2005,05:00,1,R,ugm-3,15,R,ugm-3,17,R,ugm-3
01-01-2005,06:00,1,R,ugm-3,17,R,ugm-3,19,R,ugm-3
01-01-2005,07:00,1,R,ugm-3,13,R,ugm-3,15,R,ugm-3
01-01-2005,08:00,1,R,ugm-3,17,R,ugm-3,19,R,ugm-3
01-01-2005,09:00,1,R,ugm-3,17,R,ugm-3,19,R,ugm-3
01-01-2005,10:00,1,R,ugm-3,17,R,ugm-3,19,R,ugm-3
01-01-2005,11:00,1,R,ugm-3,13,R,ugm-3,15,R,ugm-3
01-01-2005,12:00,1,R,ugm-3,17,R,ugm-3,19,R,ugm-3
01-01-2005,13:00,3,R,ugm-3,15,R,ugm-3,19,R,ugm-3
01-01-2005,14:00,3,R,ugm-3,17,R,ugm-3,21,R,ugm-3
01-01-2005,15:00,3,R,ugm-3,17,R,ugm-3,21,R,ugm-3
01-01-2005,16:00,3,R,ugm-3,17,R,ugm-3,21,R,ugm-3
01-01-2005,17:00,1,R,ugm-3,10,R,ugm-3,11,R,ugm-3
01-01-2005,18:00,3,R,ugm-3,11,R,ugm-3,15,R,ugm-3
01-01-2005,19:00,3,R,ugm-3,10,R,ugm-3,13,R,ugm-3
01-01-2005,20:00,3,R,ugm-3,8,R,ugm-3,11,R,ugm-3
01-01-2005,21:00,1,R,ugm-3,10,R,ugm-3,11,R,ugm-3
01-01-2005,22:00,1,R,ugm-3,10,R,ugm-3,11,R,ugm-3
01-01-2005,23:00,1,R,ugm-3,10,R,ugm-3,11,R,ugm-3
01-01-2005,24:00,1,R,ugm-3,8,R,ugm-3,10,R,ugm-3
02-01-2005,01:00,1,R,ugm-3,6,R,ugm-3,8,R,ugm-3
02-01-2005,02:00,1,R,ugm-3,6,R,ugm-3,8,R,ugm-3
02-01-2005,03:00,1,R,ugm-3,2,R,ugm-3,4,R,ugm-3
02-01-2005,04:00,1,R,ugm-3,4,R,ugm-3,6,R,ugm-3
02-01-2005,05:00,1,R,ugm-3,6,R,ugm-3,8,R,ugm-3
02-01-2005,06:00,1,R,ugm-3,6,R,ugm-3,8,R,ugm-3
02-01-2005,07:00,1,R,ugm-3,11,R,ugm-3,13,R,ugm-3
02-01-2005,08:00,3,R,ugm-3,11,R,ugm-3,15,R,ugm-3
02-01-2005,09:00,3,R,ugm-3,13,R,ugm-3,17,R,ugm-3
02-01-2005,10:00,5,R,ugm-3,13,R,ugm-3,21,R,ugm-3
02-01-2005,11:00,5,R,ugm-3,10,R,ugm-3,17,R,ugm-3
02-01-2005,12:00,6,R,ugm-3,11,R,ugm-3,21,R,ugm-3
02-01-2005,13:00,6,R,ugm-3,13,R,ugm-3,23,R,ugm-3
02-01-2005,14:00,6,R,ugm-3,17,R,ugm-3,27,R,ugm-3
02-01-2005,15:00,6,R,ugm-3,19,R,ugm-3,29,R,ugm-3
02-01-2005,16:00,6,R,ugm-3,21,R,ugm-3,31,R,ugm-3
02-01-2005,17:00,6,R,ugm-3,25,R,ugm-3,34,R,ugm-3
02-01-2005,18:00,6,R,ugm-3,25,R,ugm-3,34,R,ugm-3
02-01-2005,19:00,6,R,ugm-3,31,R,ugm-3,40,R,ugm-3
02-01-2005,20:00,8,R,ugm-3,34,R,ugm-3,46,R,ugm-3
02-01-2005,21:00,8,R,ugm-3,32,R,ugm-3,44,R,ugm-3
02-01-2005,22:00,5,R,ugm-3,21,R,ugm-3,29,R,ugm-3
02-01-2005,23:00,5,R,ugm-3,17,R,ugm-3,25,R,ugm-3
02-01-2005,24:00,4,R,ugm-3,19,R,ugm-3,25,R,ugm-3
03-01-2005,01:00,3,R,ugm-3,13,R,ugm-3,17,R,ugm-3
03-01-2005,02:00,3,R,ugm-3,10,R,ugm-3,13,R,ugm-3
03-01-2005,03:00,3,R,ugm-3,13,R,ugm-3,17,R,ugm-3
03-01-2005,04:00,4,R,ugm-3,17,R,ugm-3,23,R,ugm-3
03-01-2005,05:00,3,R,ugm-3,10,R,ugm-3,13,R,ugm-3
03-01-2005,06:00,3,R,ugm-3,15,R,ugm-3,19,R,ugm-3
03-01-2005,07:00,5,R,ugm-3,25,R,ugm-3,32,R,ugm-3
03-01-2005,08:00,5,R,ugm-3,25,R,ugm-3,32,R,ugm-3
03-01-2005,09:00,11,R,ugm-3,48,R,ugm-3,65,R,ugm-3
03-01-2005,10:00,6,R,ugm-3,23,R,ugm-3,32,R,ugm-3
03-01-2005,11:00,6,R,ugm-3,19,R,ugm-3,29,R,ugm-3
03-01-2005,12:00,6,R,ugm-3,13,R,ugm-3,23,R,ugm-3
03-01-2005,13:00,8,R,ugm-3,19,R,ugm-3,31,R,ugm-3
03-01-2005,14:00,8,R,ugm-3,25,R,ugm-3,36,R,ugm-3
03-01-2005,15:00,9,R,ugm-3,27,R,ugm-3,40,R,ugm-3
03-01-2005,16:00,6,R,ugm-3,25,R,ugm-3,34,R,ugm-3
03-01-2005,17:00,6,R,ugm-3,23,R,ugm-3,32,R,ugm-3
03-01-2005,18:00,5,R,ugm-3,17,R,ugm-3,25,R,ugm-3
03-01-2005,19:00,5,R,ugm-3,19,R,ugm-3,27,R,ugm-3
03-01-2005,20:00,5,R,ugm-3,23,R,ugm-3,31,R,ugm-3
03-01-2005,21:00,5,R,ugm-3,17,R,ugm-3,25,R,ugm-3
03-01-2005,22:00,4,R,ugm-3,13,R,ugm-3,19,R,ugm-3
03-01-2005,23:00,3,R,ugm-3,10,R,ugm-3,13,R,ugm-3
03-01-2005,24:00,3,R,ugm-3,11,R,ugm-3,15,R,ugm-3
04-01-2005,01:00,1,R,ugm-3,8,R,ugm-3,10,R,ugm-3
04-01-2005,02:00,1,R,ugm-3,10,R,ugm-3,11,R,ugm-3
04-01-2005,03:00,1,R,ugm-3,10,R,ugm-3,11,R,ugm-3
04-01-2005,04:00,3,R,ugm-3,11,R,ugm-3,15,R,ugm-3
04-01-2005,05:00,5,R,ugm-3,17,R,ugm-3,25,R,ugm-3
04-01-2005,06:00,9,R,ugm-3,25,R,ugm-3,38,R,ugm-3
04-01-2005,07:00,14,R,ugm-3,42,R,ugm-3,63,R,ugm-3
04-01-2005,08:00,13,R,ugm-3,34,R,ugm-3,53,R,ugm-3
04-01-2005,09:00,14,R,ugm-3,44,R,ugm-3,65,R,ugm-3
04-01-2005,10:00,14,R,ugm-3,36,R,ugm-3,57,R,ugm-3
04-01-2005,11:00,18,R,ugm-3,40,R,ugm-3,67,R,ugm-3
04-01-2005,12:00,21,R,ugm-3,48,R,ugm-3,80,R,ugm-3
04-01-2005,13:00,20,R,ugm-3,48,R,ugm-3,78,R,ugm-3
04-01-2005,14:00,26,R,ugm-3,55,R,ugm-3,96,R,ugm-3
04-01-2005,15:00,30,R,ugm-3,59,R,ugm-3,105,R,ugm-3
04-01-2005,16:00,21,R,ugm-3,46,R,ugm-3,78,R,ugm-3
04-01-2005,17:00,24,R,ugm-3,61,R,ugm-3,97,R,ugm-3
04-01-2005,18:00,25,R,ugm-3,63,R,ugm-3,101,R,ugm-3
04-01-2005,19:00,26,R,ugm-3,65,R,ugm-3,105,R,ugm-3
04-01-2005,20:00,51,R,ugm-3,76,R,ugm-3,155,R,ugm-3
04-01-2005,21:00,31,R,ugm-3,61,R,ugm-3,109,R,ugm-3
04-01-2005,22:00,30,R,ugm-3,63,R,ugm-3,109,R,ugm-3
04-01-2005,23:00,25,R,ugm-3,57,R,ugm-3,96,R,ugm-3
04-01-2005,24:00,15,R,ugm-3,44,R,ugm-3,67,R,ugm-3
05-01-2005,01:00,11,R,ugm-3,34,R,ugm-3,52,R,ugm-3
05-01-2005,02:00,21,R,ugm-3,50,R,ugm-3,82,R,ugm-3
05-01-2005,03:00,23,R,ugm-3,50,R,ugm-3,84,R,ugm-3
05-01-2005,04:00,6,R,ugm-3,38,R,ugm-3,48,R,ugm-3
05-01-2005,05:00,10,R,ugm-3,38,R,ugm-3,53,R,ugm-3
05-01-2005,06:00,23,R,ugm-3,50,R,ugm-3,84,R,ugm-3
05-01-2005,07:00,46,R,ugm-3,65,R,ugm-3,136,R,ugm-3
05-01-2005,08:00,53,R,ugm-3,74,R,ugm-3,155,R,ugm-3
05-01-2005,09:00,34,R,ugm-3,71,R,ugm-3,122,R,ugm-3
05-01-2005,10:00,34,R,ugm-3,61,R,ugm-3,113,R,ugm-3
05-01-2005,11:00,,,,,,,,,
05-01-2005,12:00,26,R,ugm-3,52,R,ugm-3,92,R,ugm-3
05-01-2005,13:00,29,R,ugm-3,55,R,ugm-3,99,R,ugm-3
05-01-2005,14:00,29,R,ugm-3,52,R,ugm-3,96,R,ugm-3
05-01-2005,15:00,25,R,ugm-3,55,R,ugm-3,94,R,ugm-3
05-01-2005,16:00,21,R,ugm-3,50,R,ugm-3,82,R,ugm-3
05-01-2005,17:00,18,R,ugm-3,48,R,ugm-3,74,R,ugm-3
05-01-2005,18:00,19,R,ugm-3,52,R,ugm-3,80,R,ugm-3
05-01-2005,19:00,15,R,ugm-3,40,R,ugm-3,63,R,ugm-3
05-01-2005,20:00,21,R,ugm-3,50,R,ugm-3,82,R,ugm-3
05-01-2005,21:00,16,R,ugm-3,46,R,ugm-3,71,R,ugm-3
05-01-2005,22:00,18,R,ugm-3,52,R,ugm-3,78,R,ugm-3
05-01-2005,23:00,14,R,ugm-3,46,R,ugm-3,67,R,ugm-3
05-01-2005,24:00,13,R,ugm-3,44,R,ugm-3,63,R,ugm-3
06-01-2005,01:00,9,R,ugm-3,32,R,ugm-3,46,R,ugm-3
06-01-2005,02:00,14,R,ugm-3,34,R,ugm-3,55,R,ugm-3
06-01-2005,03:00,14,R,ugm-3,36,R,ugm-3,57,R,ugm-3
06-01-2005,04:00,14,R,ugm-3,34,R,ugm-3,55,R,ugm-3
06-01-2005,05:00,24,R,ugm-3,52,R,ugm-3,88,R,ugm-3
06-01-2005,06:00,45,R,ugm-3,61,R,ugm-3,130,R,ugm-3
06-01-2005,07:00,68,R,ugm-3,71,R,ugm-3,174,R,ugm-3
06-01-2005,08:00,83,R,ugm-3,80,R,ugm-3,206,R,ugm-3
06-01-2005,09:00,71,R,ugm-3,76,R,ugm-3,185,R,ugm-3
06-01-2005,10:00,44,R,ugm-3,65,R,ugm-3,132,R,ugm-3
06-01-2005,11:00,34,R,ugm-3,57,R,ugm-3,109,R,ugm-3
06-01-2005,12:00,53,R,ugm-3,63,R,ugm-3,143,R,ugm-3
06-01-2005,13:00,34,R,ugm-3,55,R,ugm-3,107,R,ugm-3
06-01-2005,14:00,20,R,ugm-3,36,R,ugm-3,67,R,ugm-3
06-01-2005,15:00,23,R,ugm-3,48,R,ugm-3,82,R,ugm-3
06-01-2005,16:00,19,R,ugm-3,44,R,ugm-3,73,R,ugm-3
06-01-2005,17:00,14,R,ugm-3,36,R,ugm-3,57,R,ugm-3
06-01-2005,18:00,14,R,ugm-3,34,R,ugm-3,55,R,ugm-3
06-01-2005,19:00,9,R,ugm-3,21,R,ugm-3,34,R,ugm-3
06-01-2005,20:00,10,R,ugm-3,25,R,ugm-3,40,R,ugm-3
06-01-2005,21:00,8,R,ugm-3,27,R,ugm-3,38,R,ugm-3
06-01-2005,22:00,6,R,ugm-3,23,R,ugm-3,32,R,ugm-3
06-01-2005,23:00,6,R,ugm-3,23,R,ugm-3,32,R,ugm-3
06-01-2005,24:00,6,R,ugm-3,21,R,ugm-3,31,R,ugm-3
07-01-2005,01:00,6,R,ugm-3,19,R,ugm-3,29,R,ugm-3
07-01-2005,02:00,5,R,ugm-3,23,R,ugm-3,31,R,ugm-3
07-01-2005,03:00,6,R,ugm-3,23,R,ugm-3,32,R,ugm-3
07-01-2005,04:00,5,R,ugm-3,21,R,ugm-3,29,R,ugm-3
07-01-2005,05:00,6,R,ugm-3,15,R,ugm-3,25,R,ugm-3
07-01-2005,06:00,9,R,ugm-3,19,R,ugm-3,32,R,ugm-3
07-01-2005,07:00,13,R,ugm-3,21,R,ugm-3,40,R,ugm-3
07-01-2005,08:00,14,R,ugm-3,31,R,ugm-3,52,R,ugm-3
07-01-2005,09:00,15,R,ugm-3,42,R,ugm-3,65,R,ugm-3
07-01-2005,10:00,15,R,ugm-3,36,R,ugm-3,59,R,ugm-3
07-01-2005,11:00,19,R,ugm-3,40,R,ugm-3,69,R,ugm-3
07-01-2005,12:00,16,R,ugm-3,34,R,ugm-3,59,R,ugm-3
07-01-2005,13:00,16,R,ugm-3,32,R,ugm-3,57,R,ugm-3
07-01-2005,14:00,14,R,ugm-3,29,R,ugm-3,50,R,ugm-3
07-01-2005,15:00,15,R,ugm-3,36,R,ugm-3,59,R,ugm-3
07-01-2005,16:00,14,R,ugm-3,31,R,ugm-3,52,R,ugm-3
07-01-2005,17:00,11,R,ugm-3,32,R,ugm-3,50,R,ugm-3
07-01-2005,18:00,8,R,ugm-3,23,R,ugm-3,34,R,ugm-3
07-01-2005,19:00,6,R,ugm-3,21,R,ugm-3,31,R,ugm-3
07-01-2005,20:00,6,R,ugm-3,19,R,ugm-3,29,R,ugm-3
07-01-2005,21:00,6,R,ugm-3,21,R,ugm-3,31,R,ugm-3
07-01-2005,22:00,6,R,ugm-3,19,R,ugm-3,29,R,ugm-3
07-01-2005,23:00,5,R,ugm-3,17,R,ugm-3,25,R,ugm-3
07-01-2005,24:00,4,R,ugm-3,13,R,ugm-3,19,R,ugm-3
08-01-2005,01:00,4,R,ugm-3,13,R,ugm-3,19,R,ugm-3
08-01-2005,02:00,5,R,ugm-3,10,R,ugm-3,17,R,ugm-3
08-01-2005,03:00,1,R,ugm-3,10,R,ugm-3,11,R,ugm-3
08-01-2005,04:00,3,R,ugm-3,10,R,ugm-3,13,R,ugm-3
08-01-2005,05:00,3,R,ugm-3,8,R,ugm-3,11,R,ugm-3
08-01-2005,06:00,4,R,ugm-3,8,R,ugm-3,13,R,ugm-3
08-01-2005,07:00,5,R,ugm-3,8,R,ugm-3,15,R,ugm-3
08-01-2005,08:00,5,R,ugm-3,10,R,ugm-3,17,R,ugm-3
08-01-2005,09:00,6,R,ugm-3,15,R,ugm-3,25,R,ugm-3
08-01-2005,10:00,6,R,ugm-3,15,R,ugm-3,25,R,ugm-3
08-01-2005,11:00,6,R,ugm-3,15,R,ugm-3,25,R,ugm-3
08-01-2005,12:00,6,R,ugm-3,13,R,ugm-3,23,R,ugm-3
08-01-2005,13:00,6,R,ugm-3,13,R,ugm-3,23,R,ugm-3
08-01-2005,14:00,5,R,ugm-3,13,R,ugm-3,21,R,ugm-3
08-01-2005,15:00,5,R,ugm-3,10,R,ugm-3,17,R,ugm-3
08-01-2005,16:00,5,R,ugm-3,15,R,ugm-3,23,R,ugm-3
08-01-2005,17:00,6,R,ugm-3,19,R,ugm-3,29,R,ugm-3
08-01-2005,18:00,6,R,ugm-3,25,R,ugm-3,34,R,ugm-3
08-01-2005,19:00,9,R,ugm-3,36,R,ugm-3,50,R,ugm-3
08-01-2005,20:00,8,R,ugm-3,32,R,ugm-3,44,R,ugm-3
08-01-2005,21:00,4,R,ugm-3,19,R,ugm-3,25,R,ugm-3
08-01-2005,22:00,3,R,ugm-3,13,R,ugm-3,17,R,ugm-3
08-01-2005,23:00,3,R,ugm-3,17,R,ugm-3,21,R,ugm-3
08-01-2005,24:00,1,R,ugm-3,11,R,ugm-3,13,R,ugm-3
09-01-2005,01:00,1,R,ugm-3,11,R,ugm-3,13,R,ugm-3
09-01-2005,02:00,3,R,ugm-3,8,R,ugm-3,11,R,ugm-3
09-01-2005,03:00,1,R,ugm-3,6,R,ugm-3,8,R,ugm-3
09-01-2005,04:00,1,R,ugm-3,6,R,ugm-3,8,R,ugm-3
09-01-2005,05:00,3,R,ugm-3,11,R,ugm-3,15,R,ugm-3
09-01-2005,06:00,1,R,ugm-3,11,R,ugm-3,13,R,ugm-3
09-01-2005,07:00,3,R,ugm-3,13,R,ugm-3,17,R,ugm-3
09-01-2005,08:00,1,R,ugm-3,17,R,ugm-3,19,R,ugm-3
09-01-2005,09:00,1,R,ugm-3,19,R,ugm-3,21,R,ugm-3
09-01-2005,10:00,1,R,ugm-3,19,R,ugm-3,21,R,ugm-3
09-01-2005,11:00,1,R,ugm-3,21,R,ugm-3,23,R,ugm-3
09-01-2005,12:00,3,R,ugm-3,25,R,ugm-3,29,R,ugm-3
09-01-2005,13:00,3,R,ugm-3,25,R,ugm-3,29,R,ugm-3
09-01-2005,14:00,3,R,ugm-3,19,R,ugm-3,23,R,ugm-3
09-01-2005,15:00,3,R,ugm-3,19,R,ugm-3,23,R,ugm-3
09-01-2005,16:00,1,R,ugm-3,19,R,ugm-3,21,R,ugm-3
09-01-2005,17:00,1,R,ugm-3,19,R,ugm-3,21,R,ugm-3
09-01-2005,18:00,3,R,ugm-3,23,R,ugm-3,27,R,ugm-3
09-01-2005,19:00,5,R,ugm-3,21,R,ugm-3,29,R,ugm-3
09-01-2005,20:00,6,R,ugm-3,23,R,ugm-3,32,R,ugm-3
09-01-2005,21:00,5,R,ugm-3,23,R,ugm-3,31,R,ugm-3
09-01-2005,22:00,5,R,ugm-3,19,R,ugm-3,27,R,ugm-3
09-01-2005,23:00,3,R,ugm-3,19,R,ugm-3,23,R,ugm-3
09-01-2005,24:00,3,R,ugm-3,13,R,ugm-3,17,R,ugm-3
10-01-2005,01:00,3,R,ugm-3,10,R,ugm-3,13,R,ugm-3
10-01-2005,02:00,4,R,ugm-3,15,R,ugm-3,21,R,ugm-3
10-01-2005,03:00,3,R,ugm-3,15,R,ugm-3,19,R,ugm-3
10-01-2005,04:00,4,R,ugm-3,15,R,ugm-3,21,R,ugm-3
10-01-2005,05:00,8,R,ugm-3,21,R,ugm-3,32,R,ugm-3
10-01-2005,06:00,14,R,ugm-3,29,R,ugm-3,50,R,ugm-3
10-01-2005,07:00,20,R,ugm-3,40,R,ugm-3,71,R,ugm-3
10-01-2005,08:00,15,R,ugm-3,38,R,ugm-3,61,R,ugm-3
10-01-2005,09:00,14,R,ugm-3,38,R,ugm-3,59,R,ugm-3
10-01-2005,10:00,20,R,ugm-3,46,R,ugm-3,76,R,ugm-3
10-01-2005,11:00,23,R,ugm-3,50,R,ugm-3,84,R,ugm-3
10-01-2005,12:00,25,R,ugm-3,52,R,ugm-3,90,R,ugm-3
10-01-2005,13:00,23,R,ugm-3,46,R,ugm-3,80,R,ugm-3
10-01-2005,14:00,21,R,ugm-3,46,R,ugm-3,78,R,ugm-3
10-01-2005,15:00,23,R,ugm-3,52,R,ugm-3,86,R,ugm-3
10-01-2005,16:00,36,R,ugm-3,73,R,ugm-3,128,R,ugm-3
10-01-2005,17:00,56,R,ugm-3,82,R,ugm-3,168,R,ugm-3
10-01-2005,18:00,38,R,ugm-3,76,R,ugm-3,134,R,ugm-3
10-01-2005,19:00,21,R,ugm-3,57,R,ugm-3,90,R,ugm-3
10-01-2005,20:00,29,R,ugm-3,65,R,ugm-3,109,R,ugm-3
10-01-2005,21:00,19,R,ugm-3,61,R,ugm-3,90,R,ugm-3
10-01-2005,22:00,5,R,ugm-3,53,R,ugm-3,61,R,ugm-3
10-01-2005,23:00,4,R,ugm-3,42,R,ugm-3,48,R,ugm-3
10-01-2005,24:00,4,R,ugm-3,40,R,ugm-3,46,R,ugm-3
11-01-2005,01:00,5,R,ugm-3,34,R,ugm-3,42,R,ugm-3
11-01-2005,02:00,5,R,ugm-3,25,R,ugm-3,32,R,ugm-3
11-01-2005,03:00,6,R,ugm-3,27,R,ugm-3,36,R,ugm-3
11-01-2005,04:00,3,R,ugm-3,25,R,ugm-3,29,R,ugm-3
11-01-2005,05:00,1,R,ugm-3,27,R,ugm-3,29,R,ugm-3
11-01-2005,06:00,3,R,ugm-3,36,R,ugm-3,40,R,ugm-3
11-01-2005,07:00,4,R,ugm-3,40,R,ugm-3,46,R,ugm-3
11-01-2005,08:00,4,R,ugm-3,44,R,ugm-3,50,R,ugm-3
11-01-2005,09:00,6,R,ugm-3,52,R,ugm-3,61,R,ugm-3
11-01-2005,10:00,6,R,ugm-3,42,R,ugm-3,52,R,ugm-3
11-01-2005,11:00,4,R,ugm-3,29,R,ugm-3,34,R,ugm-3
11-01-2005,12:00,3,R,ugm-3,29,R,ugm-3,32,R,ugm-3
11-01-2005,13:00,5,R,ugm-3,34,R,ugm-3,42,R,ugm-3
11-01-2005,14:00,8,R,ugm-3,31,R,ugm-3,42,R,ugm-3
11-01-2005,15:00,14,R,ugm-3,36,R,ugm-3,57,R,ugm-3
11-01-2005,16:00,14,R,ugm-3,31,R,ugm-3,52,R,ugm-3
11-01-2005,17:00,14,R,ugm-3,32,R,ugm-3,53,R,ugm-3
11-01-2005,18:00,13,R,ugm-3,27,R,ugm-3,46,R,ugm-3
11-01-2005,19:00,13,R,ugm-3,27,R,ugm-3,46,R,ugm-3
11-01-2005,20:00,9,R,ugm-3,21,R,ugm-3,34,R,ugm-3
11-01-2005,21:00,11,R,ugm-3,23,R,ugm-3,40,R,ugm-3
11-01-2005,22:00,8,R,ugm-3,19,R,ugm-3,31,R,ugm-3
11-01-2005,23:00,8,R,ugm-3,17,R,ugm-3,29,R,ugm-3
11-01-2005,24:00,6,R,ugm-3,15,R,ugm-3,25,R,ugm-3
12-01-2005,01:00,5,R,ugm-3,13,R,ugm-3,21,R,ugm-3
12-01-2005,02:00,8,R,ugm-3,13,R,ugm-3,25,R,ugm-3
12-01-2005,03:00,6,R,ugm-3,15,R,ugm-3,25,R,ugm-3
12-01-2005,04:00,8,R,ugm-3,17,R,ugm-3,29,R,ugm-3
12-01-2005,05:00,8,R,ugm-3,21,R,ugm-3,32,R,ugm-3
12-01-2005,06:00,15,R,ugm-3,32,R,ugm-3,55,R,ugm-3
12-01-2005,07:00,26,R,ugm-3,44,R,ugm-3,84,R,ugm-3
12-01-2005,08:00,24,R,ugm-3,44,R,ugm-3,80,R,ugm-3
12-01-2005,09:00,24,R,ugm-3,44,R,ugm-3,80,R,ugm-3
12-01-2005,10:00,19,R,ugm-3,36,R,ugm-3,65,R,ugm-3
12-01-2005,11:00,18,R,ugm-3,31,R,ugm-3,57,R,ugm-3
12-01-2005,12:00,20,R,ugm-3,32,R,ugm-3,63,R,ugm-3
12-01-2005,13:00,19,R,ugm-3,29,R,ugm-3,57,R,ugm-3
12-01-2005,14:00,19,R,ugm-3,31,R,ugm-3,59,R,ugm-3
12-01-2005,15:00,19,R,ugm-3,36,R,ugm-3,65,R,ugm-3
12-01-2005,16:00,20,R,ugm-3,42,R,ugm-3,73,R,ugm-3
12-01-2005,17:00,23,R,ugm-3,52,R,ugm-3,86,R,ugm-3
12-01-2005,18:00,20,R,ugm-3,46,R,ugm-3,76,R,ugm-3
12-01-2005,19:00,15,R,ugm-3,38,R,ugm-3,61,R,ugm-3
12-01-2005,20:00,13,R,ugm-3,31,R,ugm-3,50,R,ugm-3
12-01-2005,21:00,13,R,ugm-3,34,R,ugm-3,53,R,ugm-3
12-01-2005,22:00,11,R,ugm-3,29,R,ugm-3,46,R,ugm-3
12-01-2005,23:00,11,R,ugm-3,32,R,ugm-3,50,R,ugm-3
12-01-2005,24:00,13,R,ugm-3,38,R,ugm-3,57,R,ugm-3
13-01-2005,01:00,11,R,ugm-3,38,R,ugm-3,55,R,ugm-3
13-01-2005,02:00,13,R,ugm-3,40,R,ugm-3,59,R,ugm-3
13-01-2005,03:00,11,R,ugm-3,31,R,ugm-3,48,R,ugm-3
13-01-2005,04:00,13,R,ugm-3,34,R,ugm-3,53,R,ugm-3
13-01-2005,05:00,16,R,ugm-3,40,R,ugm-3,65,R,ugm-3
13-01-2005,06:00,30,R,ugm-3,50,R,ugm-3,96,R,ugm-3
13-01-2005,07:00,75,R,ugm-3,78,R,ugm-3,193,R,ugm-3
13-01-2005,08:00,108,R,ugm-3,88,R,ugm-3,252,R,ugm-3
13-01-2005,09:00,110,R,ugm-3,88,R,ugm-3,256,R,ugm-3
13-01-2005,10:00,84,R,ugm-3,76,R,ugm-3,204,R,ugm-3
13-01-2005,11:00,54,R,ugm-3,63,R,ugm-3,145,R,ugm-3
13-01-2005,12:00,41,R,ugm-3,55,R,ugm-3,118,R,ugm-3
13-01-2005,13:00,36,R,ugm-3,50,R,ugm-3,105,R,ugm-3
13-01-2005,14:00,33,R,ugm-3,50,R,ugm-3,99,R,ugm-3
13-01-2005,15:00,45,R,ugm-3,63,R,ugm-3,132,R,ugm-3
13-01-2005,16:00,80,R,ugm-3,80,R,ugm-3,202,R,ugm-3
13-01-2005,17:00,131,R,ugm-3,96,R,ugm-3,296,R,ugm-3
13-01-2005,18:00,174,R,ugm-3,107,R,ugm-3,372,R,ugm-3
13-01-2005,19:00,185,R,ugm-3,111,R,ugm-3,393,R,ugm-3
13-01-2005,20:00,215,R,ugm-3,115,R,ugm-3,443,R,ugm-3
13-01-2005,21:00,190,R,ugm-3,101,R,ugm-3,392,R,ugm-3
13-01-2005,22:00,173,R,ugm-3,94,R,ugm-3,357,R,ugm-3
13-01-2005,23:00,115,R,ugm-3,86,R,ugm-3,262,R,ugm-3
13-01-2005,24:00,110,R,ugm-3,84,R,ugm-3,252,R,ugm-3
14-01-2005,01:00,128,R,ugm-3,82,R,ugm-3,277,R,ugm-3
14-01-2005,02:00,103,R,ugm-3,76,R,ugm-3,233,R,ugm-3
14-01-2005,03:00,98,R,ugm-3,74,R,ugm-3,223,R,ugm-3
14-01-2005,04:00,93,R,ugm-3,71,R,ugm-3,212,R,ugm-3
14-01-2005,05:00,60,R,ugm-3,69,R,ugm-3,160,R,ugm-3
14-01-2005,06:00,40,R,ugm-3,67,R,ugm-3,128,R,ugm-3
14-01-2005,07:00,31,R,ugm-3,65,R,ugm-3,113,R,ugm-3
14-01-2005,08:00,78,R,ugm-3,73,R,ugm-3,191,R,ugm-3
14-01-2005,09:00,81,R,ugm-3,73,R,ugm-3,197,R,ugm-3
14-01-2005,10:00,61,R,ugm-3,67,R,ugm-3,160,R,ugm-3
14-01-2005,11:00,24,R,ugm-3,50,R,ugm-3,86,R,ugm-3
14-01-2005,12:00,16,R,ugm-3,44,R,ugm-3,69,R,ugm-3
14-01-2005,13:00,15,R,ugm-3,46,R,ugm-3,69,R,ugm-3
14-01-2005,14:00,10,R,ugm-3,40,R,ugm-3,55,R,ugm-3
14-01-2005,15:00,8,R,ugm-3,44,R,ugm-3,55,R,ugm-3
14-01-2005,16:00,6,R,ugm-3,50,R,ugm-3,59,R,ugm-3
14-01-2005,17:00,15,R,ugm-3,73,R,ugm-3,96,R,ugm-3
14-01-2005,18:00,8,R,ugm-3,63,R,ugm-3,74,R,ugm-3
14-01-2005,19:00,4,R,ugm-3,52,R,ugm-3,57,R,ugm-3
14-01-2005,20:00,5,R,ugm-3,53,R,ugm-3,61,R,ugm-3
14-01-2005,21:00,3,R,ugm-3,46,R,ugm-3,50,R,ugm-3
14-01-2005,22:00,1,R,ugm-3,38,R,ugm-3,40,R,ugm-3
14-01-2005,23:00,3,R,ugm-3,40,R,ugm-3,44,R,ugm-3
14-01-2005,24:00,5,R,ugm-3,42,R,ugm-3,50,R,ugm-3
15-01-2005,01:00,3,R,ugm-3,36,R,ugm-3,40,R,ugm-3
15-01-2005,02:00,5,R,ugm-3,32,R,ugm-3,40,R,ugm-3
15-01-2005,03:00,5,R,ugm-3,32,R,ugm-3,40,R,ugm-3
15-01-2005,04:00,3,R,ugm-3,23,R,ugm-3,27,R,ugm-3
15-01-2005,05:00,3,R,ugm-3,25,R,ugm-3,29,R,ugm-3
15-01-2005,06:00,4,R,ugm-3,23,R,ugm-3,29,R,ugm-3
15-01-2005,07:00,5,R,ugm-3,25,R,ugm-3,32,R,ugm-3
15-01-2005,08:00,8,R,ugm-3,31,R,ugm-3,42,R,ugm-3
15-01-2005,09:00,13,R,ugm-3,34,R,ugm-3,53,R,ugm-3
15-01-2005,10:00,13,R,ugm-3,34,R,ugm-3,53,R,ugm-3
15-01-2005,11:00,16,R,ugm-3,36,R,ugm-3,61,R,ugm-3
15-01-2005,12:00,18,R,ugm-3,38,R,ugm-3,65,R,ugm-3
15-01-2005,13:00,10,R,ugm-3,36,R,ugm-3,52,R,ugm-3
15-01-2005,14:00,6,R,ugm-3,34,R,ugm-3,44,R,ugm-3
15-01-2005,15:00,9,R,ugm-3,46,R,ugm-3,59,R,ugm-3
15-01-2005,16:00,4,R,ugm-3,38,R,ugm-3,44,R,ugm-3
15-01-2005,17:00,4,R,ugm-3,40,R,ugm-3,46,R,ugm-3
15-01-2005,18:00,8,R,ugm-3,48,R,ugm-3,59,R,ugm-3
15-01-2005,19:00,5,R,ugm-3,50,R,ugm-3,57,R,ugm-3
15-01-2005,20:00,4,R,ugm-3,46,R,ugm-3,52,R,ugm-3
15-01-2005,21:00,3,R,ugm-3,44,R,ugm-3,48,R,ugm-3
15-01-2005,22:00,1,R,ugm-3,38,R,ugm-3,40,R,ugm-3
15-01-2005,23:00,3,R,ugm-3,34,R,ugm-3,38,R,ugm-3
15-01-2005,24:00,1,R,ugm-3,27,R,ugm-3,29,R,ugm-3
16-01-2005,01:00,1,R,ugm-3,29,R,ugm-3,31,R,ugm-3
16-01-2005,02:00,1,R,ugm-3,25,R,ugm-3,27,R,ugm-3
16-01-2005,03:00,1,R,ugm-3,21,R,ugm-3,23,R,ugm-3
16-01-2005,04:00,3,R,ugm-3,27,R,ugm-3,31,R,ugm-3
16-01-2005,05:00,1,R,ugm-3,25,R,ugm-3,27,R,ugm-3
16-01-2005,06:00,1,R,ugm-3,21,R,ugm-3,23,R,ugm-3
16-01-2005,07:00,1,R,ugm-3,23,R,ugm-3,25,R,ugm-3
16-01-2005,08:00,3,R,ugm-3,25,R,ugm-3,29,R,ugm-3
16-01-2005,09:00,8,R,ugm-3,27,R,ugm-3,38,R,ugm-3
16-01-2005,10:00,5,R,ugm-3,21,R,ugm-3,29,R,ugm-3
16-01-2005,11:00,5,R,ugm-3,19,R,ugm-3,27,R,ugm-3
16-01-2005,12:00,6,R,ugm-3,23,R,ugm-3,32,R,ugm-3
16-01-2005,13:00,6,R,ugm-3,25,R,ugm-3,34,R,ugm-3
16-01-2005,14:00,6,R,ugm-3,23,R,ugm-3,32,R,ugm-3
16-01-2005,15:00,8,R,ugm-3,31,R,ugm-3,42,R,ugm-3
16-01-2005,16:00,6,R,ugm-3,23,R,ugm-3,32,R,ugm-3
16-01-2005,17:00,6,R,ugm-3,19,R,ugm-3,29,R,ugm-3
16-01-2005,18:00,8,R,ugm-3,27,R,ugm-3,38,R,ugm-3
16-01-2005,19:00,10,R,ugm-3,38,R,ugm-3,53,R,ugm-3
16-01-2005,20:00,10,R,ugm-3,34,R,ugm-3,50,R,ugm-3
16-01-2005,21:00,6,R,ugm-3,44,R,ugm-3,53,R,ugm-3
16-01-2005,22:00,3,R,ugm-3,42,R,ugm-3,46,R,ugm-3
16-01-2005,23:00,3,R,ugm-3,29,R,ugm-3,32,R,ugm-3
16-01-2005,24:00,3,R,ugm-3,19,R,ugm-3,23,R,ugm-3
17-01-2005,01:00,3,R,ugm-3,21,R,ugm-3,25,R,ugm-3
17-01-2005,02:00,5,R,ugm-3,21,R,ugm-3,29,R,ugm-3
17-01-2005,03:00,4,R,ugm-3,21,R,ugm-3,27,R,ugm-3
17-01-2005,04:00,4,R,ugm-3,21,R,ugm-3,27,R,ugm-3
17-01-2005,05:00,8,R,ugm-3,27,R,ugm-3,38,R,ugm-3
17-01-2005,06:00,11,R,ugm-3,36,R,ugm-3,53,R,ugm-3
17-01-2005,07:00,18,R,ugm-3,42,R,ugm-3,69,R,ugm-3
17-01-2005,08:00,19,R,ugm-3,46,R,ugm-3,74,R,ugm-3
17-01-2005,09:00,19,R,ugm-3,46,R,ugm-3,74,R,ugm-3
17-01-2005,10:00,23,R,ugm-3,48,R,ugm-3,82,R,ugm-3
17-01-2005,11:00,19,R,ugm-3,48,R,ugm-3,76,R,ugm-3
17-01-2005,12:00,26,R,ugm-3,53,R,ugm-3,94,R,ugm-3
17-01-2005,13:00,31,R,ugm-3,55,R,ugm-3,103,R,ugm-3
17-01-2005,14:00,24,R,ugm-3,46,R,ugm-3,82,R,ugm-3
17-01-2005,15:00,18,R,ugm-3,40,R,ugm-3,67,R,ugm-3
17-01-2005,16:00,26,R,ugm-3,53,R,ugm-3,94,R,ugm-3
17-01-2005,17:00,28,R,ugm-3,59,R,ugm-3,101,R,ugm-3
17-01-2005,18:00,19,R,ugm-3,46,R,ugm-3,74,R,ugm-3
17-01-2005,19:00,18,R,ugm-3,50,R,ugm-3,76,R,ugm-3
17-01-2005,20:00,9,R,ugm-3,29,R,ugm-3,42,R,ugm-3
17-01-2005,21:00,9,R,ugm-3,27,R,ugm-3,40,R,ugm-3
17-01-2005,22:00,11,R,ugm-3,34,R,ugm-3,52,R,ugm-3
17-01-2005,23:00,10,R,ugm-3,32,R,ugm-3,48,R,ugm-3
17-01-2005,24:00,8,R,ugm-3,27,R,ugm-3,38,R,ugm-3
18-01-2005,01:00,8,R,ugm-3,31,R,ugm-3,42,R,ugm-3
18-01-2005,02:00,13,R,ugm-3,42,R,ugm-3,61,R,ugm-3
18-01-2005,03:00,8,R,ugm-3,21,R,ugm-3,32,R,ugm-3
18-01-2005,04:00,9,R,ugm-3,27,R,ugm-3,40,R,ugm-3
18-01-2005,05:00,15,R,ugm-3,38,R,ugm-3,61,R,ugm-3
18-01-2005,06:00,21,R,ugm-3,42,R,ugm-3,74,R,ugm-3
18-01-2005,07:00,46,R,ugm-3,69,R,ugm-3,139,R,ugm-3
18-01-2005,08:00,58,R,ugm-3,78,R,ugm-3,166,R,ugm-3
18-01-2005,09:00,48,R,ugm-3,73,R,ugm-3,145,R,ugm-3
18-01-2005,10:00,46,R,ugm-3,59,R,ugm-3,130,R,ugm-3
18-01-2005,11:00,25,R,ugm-3,40,R,ugm-3,78,R,ugm-3
18-01-2005,12:00,25,R,ugm-3,40,R,ugm-3,78,R,ugm-3
18-01-2005,13:00,24,R,ugm-3,36,R,ugm-3,73,R,ugm-3
18-01-2005,14:00,24,R,ugm-3,38,R,ugm-3,74,R,ugm-3
18-01-2005,15:00,20,R,ugm-3,34,R,ugm-3,65,R,ugm-3
18-01-2005,16:00,19,R,ugm-3,40,R,ugm-3,69,R,ugm-3
18-01-2005,17:00,15,R,ugm-3,40,R,ugm-3,63,R,ugm-3
18-01-2005,18:00,14,R,ugm-3,32,R,ugm-3,53,R,ugm-3
18-01-2005,19:00,15,R,ugm-3,34,R,ugm-3,57,R,ugm-3
18-01-2005,20:00,11,R,ugm-3,25,R,ugm-3,42,R,ugm-3
18-01-2005,21:00,11,R,ugm-3,27,R,ugm-3,44,R,ugm-3
18-01-2005,22:00,10,R,ugm-3,29,R,ugm-3,44,R,ugm-3
18-01-2005,23:00,9,R,ugm-3,29,R,ugm-3,42,R,ugm-3
18-01-2005,24:00,18,R,ugm-3,52,R,ugm-3,78,R,ugm-3
19-01-2005,01:00,10,R,ugm-3,36,R,ugm-3,52,R,ugm-3
19-01-2005,02:00,9,R,ugm-3,29,R,ugm-3,42,R,ugm-3
19-01-2005,03:00,9,R,ugm-3,25,R,ugm-3,38,R,ugm-3
19-01-2005,04:00,11,R,ugm-3,36,R,ugm-3,53,R,ugm-3
19-01-2005,05:00,34,R,ugm-3,59,R,ugm-3,111,R,ugm-3
19-01-2005,06:00,68,R,ugm-3,82,R,ugm-3,185,R,ugm-3
19-01-2005,07:00,56,R,ugm-3,71,R,ugm-3,157,R,ugm-3
19-01-2005,08:00,66,R,ugm-3,80,R,ugm-3,181,R,ugm-3
19-01-2005,09:00,85,R,ugm-3,86,R,ugm-3,216,R,ugm-3
19-01-2005,10:00,53,R,ugm-3,67,R,ugm-3,147,R,ugm-3
19-01-2005,11:00,43,R,ugm-3,63,R,ugm-3,128,R,ugm-3
19-01-2005,12:00,,,,,,,,,
19-01-2005,13:00,26,R,ugm-3,46,R,ugm-3,86,R,ugm-3
19-01-2005,14:00,30,R,ugm-3,50,R,ugm-3,96,R,ugm-3
19-01-2005,15:00,44,R,ugm-3,65,R,ugm-3,132,R,ugm-3
19-01-2005,16:00,49,R,ugm-3,67,R,ugm-3,141,R,ugm-3
19-01-2005,17:00,45,R,ugm-3,67,R,ugm-3,136,R,ugm-3
19-01-2005,18:00,44,R,ugm-3,65,R,ugm-3,132,R,ugm-3
19-01-2005,19:00,29,R,ugm-3,53,R,ugm-3,97,R,ugm-3
19-01-2005,20:00,14,R,ugm-3,32,R,ugm-3,53,R,ugm-3
19-01-2005,21:00,13,R,ugm-3,29,R,ugm-3,48,R,ugm-3
19-01-2005,22:00,8,R,ugm-3,19,R,ugm-3,31,R,ugm-3
19-01-2005,23:00,6,R,ugm-3,19,R,ugm-3,29,R,ugm-3
19-01-2005,24:00,6,R,ugm-3,21,R,ugm-3,31,R,ugm-3
20-01-2005,01:00,6,R,ugm-3,23,R,ugm-3,32,R,ugm-3
20-01-2005,02:00,6,R,ugm-3,11,R,ugm-3,21,R,ugm-3
20-01-2005,03:00,5,R,ugm-3,10,R,ugm-3,17,R,ugm-3
20-01-2005,04:00,6,R,ugm-3,25,R,ugm-3,34,R,ugm-3
20-01-2005,05:00,9,R,ugm-3,19,R,ugm-3,32,R,ugm-3
20-01-2005,06:00,18,R,ugm-3,42,R,ugm-3,69,R,ugm-3
20-01-2005,07:00,18,R,ugm-3,36,R,ugm-3,63,R,ugm-3
20-01-2005,08:00,19,R,ugm-3,42,R,ugm-3,71,R,ugm-3
20-01-2005,09:00,16,R,ugm-3,40,R,ugm-3,65,R,ugm-3
20-01-2005,10:00,16,R,ugm-3,32,R,ugm-3,57,R,ugm-3
20-01-2005,11:00,16,R,ugm-3,31,R,ugm-3,55,R,ugm-3
20-01-2005,12:00,18,R,ugm-3,31,R,ugm-3,57,R,ugm-3
20-01-2005,13:00,16,R,ugm-3,31,R,ugm-3,55,R,ugm-3
20-01-2005,14:00,16,R,ugm-3,34,R,ugm-3,59,R,ugm-3
20-01-2005,15:00,15,R,ugm-3,32,R,ugm-3,55,R,ugm-3
20-01-2005,16:00,14,R,ugm-3,32,R,ugm-3,53,R,ugm-3
20-01-2005,17:00,14,R,ugm-3,31,R,ugm-3,52,R,ugm-3
20-01-2005,18:00,11,R,ugm-3,27,R,ugm-3,44,R,ugm-3
20-01-2005,19:00,13,R,ugm-3,32,R,ugm-3,52,R,ugm-3
20-01-2005,20:00,11,R,ugm-3,32,R,ugm-3,50,R,ugm-3
20-01-2005,21:00,11,R,ugm-3,31,R,ugm-3,48,R,ugm-3
20-01-2005,22:00,8,R,ugm-3,23,R,ugm-3,34,R,ugm-3
20-01-2005,23:00,6,R,ugm-3,17,R,ugm-3,27,R,ugm-3